Home > Weather > Brades > Past weeks

Flag for Montserrat Past Weather in Brades, Montserrat — Yesterday and Last 2 Weeks

Now
88 °F

Scattered clouds.


Feels Like: 98 °F
Forecast: 81 / 86 °F
Wind: 13 mph from East

Location: Vc Bird International Antigua Airport

Current Time: Jul 29, 2016 at 2:05:43 PM

Latest Report: Jul 29, 2016 at 1:00 PM


Visibility: N/A

Pressure: 29.98 "Hg

Humidity: 66%

Dew Point: 75 °F

Location of BradesLocation

Past Weather in Brades — Graph

°F

Brades Temperature Yesterday

Maximum temperature yesterday: 88 °F (at 12:00 PM)
Minimum temperature yesterday: 77 °F (at 6:00 AM)
Average temperature yesterday: 83 °F

High & Low Weather Summary for the Past Weeks

 TemperatureHumidityPressure
High88 °F (Jul 14, 1:00 PM)89% (Jul 18, 4:00 PM)30.07 "Hg (Jul 18, 4:00 PM)
Low77 °F (Jul 18, 4:00 PM)55% (Jul 18, 11:00 AM)29.95 "Hg (Jul 15, 3:00 AM)
Average83 °F74%30.00 "Hg
* Reported Jul 14 12:00 PM — Jul 29 12:00 PM, Brades, Weather by CustomWeather, © 2016

Note: Actual official high and low records may vary slightly from our data, if they occured in-between our weather recording intervals... More about our weather records

Advertising

Brades Weather History for the Previous 24 Hours

Scroll right to see more
 ConditionsComfort  
Time TempWeatherWind HumidityBarometerVisibility
12:00 PM
Fri, Jul 29
88 °FPassing clouds.15 mph62%30.01 "HgN/A
11:00 AM88 °FPassing clouds.15 mph62%30.01 "HgN/A
10:00 AM86 °FPassing clouds.14 mph66%30.01 "HgN/A
9:00 AM84 °FScattered clouds.16 mph70%30.01 "HgN/A
8:00 AM84 °FScattered clouds.13 mph70%30.01 "HgN/A
7:00 AM82 °FScattered clouds.14 mph70%29.98 "HgN/A
6:00 AM81 °FPassing clouds.13 mph74%29.98 "HgN/A
3:00 AM81 °FPassing clouds.12 mph79%29.95 "HgN/A
2:00 AM81 °FSprinkles. Passing clouds.14 mph84%29.98 "HgN/A
1:00 AM82 °FPassing clouds.10 mph74%29.98 "HgN/A
12:00 AM82 °FPassing clouds.9 mph79%30.01 "HgN/A
11:00 PM
Thu, Jul 28
82 °FPassing clouds.12 mph74%30.01 "HgN/A
10:00 PM82 °FPassing clouds.10 mph74%30.01 "HgN/A
9:00 PM82 °FPassing clouds.10 mph79%30.01 "HgN/A
8:00 PM82 °FPassing clouds.10 mph74%29.98 "HgN/A
7:00 PM82 °FPassing clouds.10 mph74%29.98 "HgN/A
6:00 PM84 °FScattered clouds.10 mph70%29.95 "HgN/A
5:00 PM84 °FPassing clouds.9 mph70%29.95 "HgN/A
4:00 PM86 °FPassing clouds.12 mph70%29.95 "HgN/A
3:00 PM88 °FPassing clouds.12 mph66%29.95 "HgN/A
2:00 PM88 °FScattered clouds.10 mph66%29.98 "HgN/A
Weather by CustomWeather, © 2016

See weather overviewHow to use our weather pages